Weather History for PAMR - May, 2013

Change the Weather History Date:

Wednesday, May 22, 2013

  Actual Average Record
Temperature  
Mean Temperature 47 °F -  
Max Temperature 57 °F 58 °F 68 °F (2006)
Min Temperature 39 °F 41 °F 37 °F (2003)
Degree Days  
Heating Degree Days 18    
Moisture  
Dew Point 32 °F    
Average Humidity 57    
Maximum Humidity 86    
Minimum Humidity 37    
Precipitation  
Precipitation 0.00 in - - ()
Sea Level Pressure  
Sea Level Pressure 30.17 in    
Wind  
Wind Speed 2 mph (West)    
Max Wind Speed 12 mph    
Max Gust Speed -    
Visibility 10 miles    
Events Rain    
Averages and records for this station are not official NWS values.
T = Trace of Precipitation, MM = Missing Value Source: NWS Daily Summary

Daily Weather History Graph

Daily Weather History Graph

Search for Another Location

Airport or City:

Trip Planner

Search our weather history database for the weather conditions in past years. The results will help you decide how hot, cold, wet, or windy it might be!

Date:

Astronomy

May. 22, 2013 Rise Set
Actual Time 4:54 AM AKDT 10:59 PM AKDT
Civil Twilight 3:33 AM AKDT 12:22 AM AKDT
Nautical Twilight Sun does not set Sun does not set
Astronomical Twilight Sun does not set Sun does not set
Moon 7:52 PM AKDT (5/22) 3:59 AM AKDT (5/22)
Length of Visible Light 20h 48m
Length of Day
18h 04m
Waxing Gibbous, 92% of the Moon is Illuminated
May 22
Waxing Gibbous
May 24
Full
May 31
Last Quarter
Jun 8
New
Jun 16
First Quarter

Hourly Weather History & Observations

Time (AKDT) Temp. Windchill Dew Point Humidity Pressure Visibility Wind Dir Wind Speed Gust Speed Precip Events Conditions
12:53 AM 44.1 °F - 30.0 °F 58% 30.26 in 10.0 mi Calm Calm - N/A   Mostly Cloudy
1:53 AM 43.0 °F - 28.9 °F 58% 30.25 in 10.0 mi Calm Calm - N/A   Mostly Cloudy
2:53 AM 41.0 °F - 28.9 °F 62% 30.24 in 10.0 mi Calm Calm - N/A   Mostly Cloudy
3:53 AM 39.0 °F - 28.9 °F 67% 30.23 in 10.0 mi Calm Calm - N/A   Mostly Cloudy
4:53 AM 41.0 °F - 28.9 °F 62% 30.21 in 10.0 mi Calm Calm - N/A   Mostly Cloudy
5:53 AM 41.0 °F - 30.9 °F 67% 30.20 in 10.0 mi Calm Calm - N/A   Mostly Cloudy
6:53 AM 42.1 °F - 30.0 °F 62% 30.19 in 10.0 mi Calm Calm - N/A   Mostly Cloudy
7:53 AM 42.1 °F 40.2 °F 35.1 °F 76% 30.19 in 10.0 mi WNW 3.5 mph - N/A   Overcast
8:53 AM 45.0 °F - 34.0 °F 65% 30.19 in 10.0 mi Calm Calm - N/A   Overcast
9:53 AM 48.0 °F - 30.9 °F 52% 30.18 in 10.0 mi WNW 3.5 mph - N/A   Mostly Cloudy
10:53 AM 50.0 °F - 28.9 °F 44% 30.17 in 10.0 mi Calm Calm - N/A   Mostly Cloudy
11:53 AM 52.0 °F - 28.9 °F 41% 30.16 in 10.0 mi Variable 3.5 mph - N/A   Overcast
12:53 PM 53.1 °F - 28.0 °F 38% 30.15 in 10.0 mi West 5.8 mph - N/A   Overcast
1:53 PM 53.1 °F - 28.0 °F 38% 30.14 in 10.0 mi WNW 8.1 mph - N/A   Overcast
2:53 PM 55.0 °F - 28.9 °F 37% 30.13 in 10.0 mi NW 6.9 mph - N/A   Mostly Cloudy
3:53 PM 54.0 °F - 28.0 °F 37% 30.12 in 10.0 mi West 10.4 mph - N/A   Mostly Cloudy
4:53 PM 54.0 °F - 30.0 °F 40% 30.12 in 10.0 mi West 11.5 mph - N/A   Overcast
5:53 PM 51.1 °F - 30.9 °F 46% 30.13 in 10.0 mi West 10.4 mph - N/A   Overcast
6:53 PM 50.0 °F - 35.1 °F 57% 30.13 in 10.0 mi West 9.2 mph - N/A   Overcast
7:53 PM 50.0 °F - 36.0 °F 59% 30.13 in 10.0 mi WSW 4.6 mph - N/A   Overcast
8:53 PM 50.0 °F - 37.9 °F 63% 30.13 in 10.0 mi WSW 4.6 mph - 0.00 in   Mostly Cloudy
9:53 PM 46.9 °F - 37.9 °F 71% 30.13 in 10.0 mi WNW 3.5 mph - N/A   Overcast
10:53 PM 46.9 °F - 39.0 °F 74% 30.14 in 10.0 mi SSW 3.5 mph - 0.00 in Rain Light Rain
11:53 PM 45.0 °F - 41.0 °F 86% 30.15 in 10.0 mi Calm Calm - 0.00 in Rain Light Rain